CSZ9324 ZJSY-ZGSZ

Flight info

Callsign CSZ9324
Flight time 1h 12m
Altitude 31100
Route M078S0950 PORAP W222 NUMKU W223 AGTEL W71 LH H81 GYA A599 POU W7 SAREX
Aircraft B738/M-SDE2E3FGHIRWZ/LB1

Departure

Time 2026-05-04 13:07
Airport Sanya Phoenix International Airport (ZJSY)

Arrival

Time 2026-05-04 14:19
Airport Shenzhen Bao'an International Airport (ZGSZ)
Time Latitude Longitude Altitude Speed Heading
2026-05-04 12:42 18.30865 109.41103 87 ft 0 kts 352°
2026-05-04 12:54 18.30861 109.41103 83 ft 2 kts 352°
2026-05-04 12:54 18.30844 109.41106 86 ft 2 kts 352°
2026-05-04 12:54 18.30828 109.41108 86 ft 2 kts 352°
2026-05-04 12:54 18.30812 109.41111 85 ft 2 kts 352°
2026-05-04 12:55 18.30796 109.41113 87 ft 2 kts 351°
2026-05-04 12:55 18.30780 109.41117 85 ft 2 kts 322°
2026-05-04 12:55 18.30772 109.41131 85 ft 2 kts 268°
2026-05-04 12:55 18.30773 109.41143 84 ft 0 kts 263°
2026-05-04 13:00 18.30771 109.41133 84 ft 4 kts 263°
2026-05-04 13:00 18.30763 109.41066 83 ft 13 kts 263°
2026-05-04 13:00 18.30745 109.40976 86 ft 10 kts 230°
2026-05-04 13:00 18.30678 109.40969 83 ft 10 kts 173°
2026-05-04 13:01 18.30609 109.40978 84 ft 11 kts 173°
2026-05-04 13:01 18.30529 109.40990 86 ft 11 kts 172°
2026-05-04 13:01 18.30494 109.40976 83 ft 4 kts 237°
2026-05-04 13:01 18.30488 109.40943 84 ft 7 kts 263°
2026-05-04 13:02 18.30480 109.40863 81 ft 15 kts 265°
2026-05-04 13:02 18.30474 109.40746 86 ft 16 kts 262°
2026-05-04 13:02 18.30458 109.40623 82 ft 18 kts 262°
2026-05-04 13:02 18.30440 109.40481 73 ft 20 kts 262°
2026-05-04 13:03 18.30422 109.40337 77 ft 20 kts 262°
2026-05-04 13:03 18.30405 109.40198 76 ft 19 kts 262°
2026-05-04 13:03 18.30385 109.40063 69 ft 18 kts 261°
2026-05-04 13:03 18.30365 109.39933 74 ft 18 kts 261°
2026-05-04 13:04 18.30353 109.39807 73 ft 17 kts 264°
2026-05-04 13:04 18.30338 109.39687 72 ft 16 kts 263°
2026-05-04 13:04 18.30329 109.39634 65 ft 5 kts 244°
2026-05-04 13:04 18.30291 109.39620 66 ft 7 kts 177°
2026-05-04 13:05 18.30244 109.39624 64 ft 7 kts 174°
2026-05-04 13:05 18.30198 109.39630 63 ft 7 kts 172°
2026-05-04 13:05 18.30153 109.39637 73 ft 6 kts 172°
2026-05-04 13:05 18.30107 109.39645 70 ft 7 kts 162°
2026-05-04 13:06 18.30091 109.39689 71 ft 7 kts 87°
2026-05-04 13:06 18.30097 109.39740 74 ft 7 kts 82°
2026-05-04 13:06 18.30104 109.39790 74 ft 8 kts 82°
2026-05-04 13:06 18.30139 109.40050 76 ft 80 kts 82°
2026-05-04 13:07 18.30256 109.40946 84 ft 164 kts 82°
2026-05-04 13:07 18.30430 109.42227 847 ft 177 kts 82°
2026-05-04 13:07 18.30589 109.43459 2240 ft 158 kts 83°
2026-05-04 13:07 18.30738 109.44578 3292 ft 155 kts 80°
2026-05-04 13:08 18.31310 109.45560 3902 ft 175 kts 39°
2026-05-04 13:08 18.32373 109.46421 4216 ft 208 kts 41°
2026-05-04 13:08 18.33562 109.47447 4466 ft 235 kts 41°
2026-05-04 13:08 18.34848 109.48575 5013 ft 245 kts 42°
2026-05-04 13:09 18.36171 109.49748 5732 ft 253 kts 42°
2026-05-04 13:09 18.37513 109.50943 6686 ft 253 kts 41°
2026-05-04 13:09 18.38846 109.52145 7627 ft 252 kts 41°
2026-05-04 13:09 18.40196 109.53368 8414 ft 258 kts 42°
2026-05-04 13:10 18.41578 109.54623 9191 ft 267 kts 41°
2026-05-04 13:10 18.43011 109.55926 9914 ft 277 kts 40°
2026-05-04 13:10 18.44474 109.57258 10727 ft 279 kts 40°
2026-05-04 13:10 18.45947 109.58601 11531 ft 282 kts 40°
2026-05-04 13:11 18.47444 109.59966 12313 ft 287 kts 39°
2026-05-04 13:11 18.48977 109.61337 13107 ft 291 kts 34°
2026-05-04 13:11 18.50763 109.62438 13535 ft 309 kts 23°
2026-05-04 13:11 18.52802 109.63402 13721 ft 333 kts 21°
2026-05-04 13:12 18.55011 109.64389 13891 ft 356 kts 21°
2026-05-04 13:12 18.57353 109.65446 14141 ft 374 kts 21°
2026-05-04 13:12 18.59760 109.66559 14654 ft 381 kts 22°
2026-05-04 13:12 18.62190 109.67704 15284 ft 384 kts 22°
2026-05-04 13:13 18.64638 109.68871 15899 ft 388 kts 22°
2026-05-04 13:13 18.67109 109.70056 16486 ft 393 kts 22°
2026-05-04 13:13 18.69610 109.71257 17053 ft 397 kts 22°
2026-05-04 13:13 18.72140 109.72472 17627 ft 402 kts 22°
2026-05-04 13:14 18.74698 109.73699 18202 ft 406 kts 22°
2026-05-04 13:14 18.77282 109.74939 18696 ft 410 kts 22°
2026-05-04 13:14 18.79889 109.76190 19201 ft 413 kts 21°
2026-05-04 13:14 18.82479 109.77431 19695 ft 416 kts 22°
2026-05-04 13:15 18.85124 109.78700 20171 ft 419 kts 22°
2026-05-04 13:15 18.87791 109.79980 20641 ft 423 kts 22°
2026-05-04 13:15 18.90478 109.81279 21118 ft 426 kts 22°
2026-05-04 13:15 18.93193 109.82583 21551 ft 430 kts 22°
2026-05-04 13:16 18.95925 109.83894 22031 ft 433 kts 22°
2026-05-04 13:16 18.98676 109.85214 22498 ft 436 kts 21°
2026-05-04 13:16 19.01445 109.86544 22938 ft 439 kts 21°
2026-05-04 13:16 19.04236 109.87886 23322 ft 443 kts 21°
2026-05-04 13:17 19.07055 109.89243 23669 ft 447 kts 21°
2026-05-04 13:17 19.09896 109.90612 24007 ft 450 kts 21°
2026-05-04 13:17 19.12751 109.91989 24377 ft 452 kts 21°
2026-05-04 13:17 19.15615 109.93370 24742 ft 453 kts 21°
2026-05-04 13:18 19.18492 109.94758 25104 ft 455 kts 21°
2026-05-04 13:18 19.21375 109.96149 25512 ft 455 kts 21°
2026-05-04 13:18 19.24241 109.97533 26126 ft 448 kts 21°
2026-05-04 13:18 19.27074 109.98876 26510 ft 446 kts 20°
2026-05-04 13:19 19.28960 109.99738 26665 ft 446 kts 20°
2026-05-04 13:19 19.31841 110.01039 26657 ft 454 kts 20°
2026-05-04 13:19 19.34744 110.02380 26671 ft 456 kts 20°
2026-05-04 13:19 19.37628 110.03764 26664 ft 455 kts 21°
2026-05-04 13:20 19.40499 110.05163 26677 ft 455 kts 21°
2026-05-04 13:20 19.43373 110.06568 26668 ft 455 kts 21°
2026-05-04 13:20 19.46245 110.07968 26661 ft 454 kts 21°
2026-05-04 13:20 19.49118 110.09365 26668 ft 454 kts 21°
2026-05-04 13:21 19.51987 110.10756 26669 ft 454 kts 21°
2026-05-04 13:21 19.54857 110.12145 26666 ft 454 kts 21°
2026-05-04 13:21 19.57729 110.13534 26661 ft 453 kts 21°
2026-05-04 13:21 19.60599 110.14922 26663 ft 453 kts 21°
2026-05-04 13:22 19.63466 110.16310 26675 ft 453 kts 20°
2026-05-04 13:22 19.66334 110.17698 26674 ft 453 kts 20°
2026-05-04 13:22 19.69207 110.19089 26665 ft 454 kts 20°
2026-05-04 13:22 19.72080 110.20481 26662 ft 454 kts 20°
2026-05-04 13:23 19.74953 110.21874 26658 ft 454 kts 20°
2026-05-04 13:23 19.77831 110.23270 26658 ft 455 kts 20°
2026-05-04 13:23 19.80707 110.24666 26656 ft 455 kts 20°
2026-05-04 13:23 19.83586 110.26063 26655 ft 455 kts 20°
2026-05-04 13:24 19.86463 110.27460 26655 ft 455 kts 20°
2026-05-04 13:24 19.89342 110.28859 26652 ft 455 kts 20°
2026-05-04 13:24 19.92219 110.30258 26653 ft 455 kts 20°
2026-05-04 13:25 19.97974 110.33057 26655 ft 455 kts 20°
2026-05-04 13:25 20.00857 110.34460 26653 ft 455 kts 20°
2026-05-04 13:25 20.03739 110.35861 26653 ft 455 kts 20°
2026-05-04 13:25 20.06702 110.36967 26645 ft 449 kts
2026-05-04 13:26 20.09768 110.37409 26661 ft 442 kts 357°
2026-05-04 13:26 20.12808 110.37272 26651 ft 434 kts 346°
2026-05-04 13:26 20.15762 110.36667 26662 ft 432 kts 343°
2026-05-04 13:26 20.18704 110.36006 26657 ft 432 kts 343°
2026-05-04 13:27 20.21647 110.35342 26658 ft 432 kts 343°
2026-05-04 13:27 20.24596 110.34690 26671 ft 433 kts 343°
2026-05-04 13:27 20.27544 110.34053 26670 ft 433 kts 343°
2026-05-04 13:27 20.30499 110.33423 26670 ft 433 kts 343°
2026-05-04 13:28 20.33456 110.32798 26674 ft 433 kts 343°
2026-05-04 13:28 20.36412 110.32174 26677 ft 433 kts 343°
2026-05-04 13:28 20.39365 110.31551 26679 ft 433 kts 343°
2026-05-04 13:28 20.42278 110.30935 26675 ft 433 kts 343°
2026-05-04 13:29 20.45227 110.30311 26673 ft 432 kts 343°
2026-05-04 13:29 20.48178 110.29690 26675 ft 432 kts 344°
2026-05-04 13:29 20.51183 110.29322 26669 ft 438 kts 354°
2026-05-04 13:29 20.54246 110.29439 26684 ft 441 kts 359°
2026-05-04 13:30 20.57310 110.29670 26685 ft 442 kts 359°
2026-05-04 13:30 20.60376 110.29920 26685 ft 442 kts 359°
2026-05-04 13:30 20.63438 110.30164 26679 ft 441 kts 359°
2026-05-04 13:30 20.66500 110.30393 26679 ft 441 kts 359°
2026-05-04 13:31 20.69561 110.30610 26674 ft 441 kts 359°
2026-05-04 13:31 20.72617 110.30819 26675 ft 440 kts 359°
2026-05-04 13:31 20.75675 110.31024 26678 ft 440 kts 359°
2026-05-04 13:31 20.78730 110.31228 26674 ft 440 kts 359°
2026-05-04 13:32 20.81783 110.31432 26676 ft 440 kts 359°
2026-05-04 13:32 20.84837 110.31637 26677 ft 440 kts 359°
2026-05-04 13:32 20.87891 110.31842 26675 ft 440 kts 359°
2026-05-04 13:32 20.90944 110.32048 26676 ft 440 kts 359°
2026-05-04 13:33 20.93997 110.32253 26677 ft 440 kts 359°
2026-05-04 13:33 20.97048 110.32459 26677 ft 440 kts 359°
2026-05-04 13:33 21.00103 110.32660 26677 ft 439 kts 358°
2026-05-04 13:33 21.03152 110.32816 26677 ft 439 kts 357°
2026-05-04 13:34 21.06207 110.32954 26676 ft 439 kts 357°
2026-05-04 13:34 21.09263 110.33102 26675 ft 440 kts 359°
2026-05-04 13:34 21.12290 110.33740 26671 ft 450 kts 15°
2026-05-04 13:34 21.15110 110.35241 26681 ft 458 kts 31°
2026-05-04 13:35 21.17509 110.37513 26682 ft 464 kts 45°
2026-05-04 13:35 21.21875 110.42600 26682 ft 464 kts 44°
2026-05-04 13:35 21.24097 110.45110 26677 ft 464 kts 43°
2026-05-04 13:36 21.26299 110.47571 26672 ft 464 kts 43°
2026-05-04 13:36 21.28535 110.50062 26675 ft 464 kts 43°
2026-05-04 13:36 21.30773 110.52554 26680 ft 463 kts 43°
2026-05-04 13:36 21.33006 110.55045 26679 ft 463 kts 43°
2026-05-04 13:37 21.35238 110.57539 26683 ft 463 kts 43°
2026-05-04 13:37 21.37468 110.60030 26683 ft 463 kts 43°
2026-05-04 13:37 21.39710 110.62509 26685 ft 463 kts 43°
2026-05-04 13:37 21.41958 110.64979 26684 ft 463 kts 43°
2026-05-04 13:38 21.44208 110.67447 26683 ft 462 kts 43°
2026-05-04 13:38 21.46457 110.69917 26693 ft 463 kts 42°
2026-05-04 13:38 21.48708 110.72394 26690 ft 464 kts 42°
2026-05-04 13:38 21.50959 110.74874 26690 ft 464 kts 42°
2026-05-04 13:39 21.53214 110.77362 26689 ft 465 kts 42°
2026-05-04 13:39 21.55469 110.79853 26690 ft 466 kts 42°
2026-05-04 13:39 21.57729 110.82349 26689 ft 466 kts 43°
2026-05-04 13:39 21.59987 110.84844 26688 ft 466 kts 43°
2026-05-04 13:40 21.62243 110.87337 26683 ft 465 kts 43°
2026-05-04 13:40 21.64498 110.89828 26690 ft 465 kts 43°
2026-05-04 13:40 21.66751 110.92319 26690 ft 464 kts 43°
2026-05-04 13:40 21.69001 110.94807 26688 ft 464 kts 43°
2026-05-04 13:41 21.71251 110.97297 26692 ft 464 kts 43°
2026-05-04 13:41 21.73499 110.99785 26694 ft 464 kts 42°
2026-05-04 13:41 21.75747 111.02276 26699 ft 465 kts 42°
2026-05-04 13:42 21.80260 111.07279 26701 ft 466 kts 42°
2026-05-04 13:42 21.82518 111.09787 26693 ft 467 kts 42°
2026-05-04 13:42 21.84778 111.12296 26706 ft 466 kts 42°
2026-05-04 13:42 21.87036 111.14804 26702 ft 467 kts 42°
2026-05-04 13:43 21.89299 111.17317 26697 ft 467 kts 42°
2026-05-04 13:43 21.91560 111.19832 26700 ft 468 kts 42°
2026-05-04 13:43 21.93820 111.22348 26706 ft 467 kts 42°
2026-05-04 13:43 21.96081 111.24866 26699 ft 467 kts 42°
2026-05-04 13:44 21.98338 111.27382 26708 ft 467 kts 43°
2026-05-04 13:44 22.00602 111.29893 26686 ft 466 kts 41°
2026-05-04 13:44 22.02844 111.32343 26716 ft 465 kts 41°
2026-05-04 13:44 22.05120 111.34825 26712 ft 466 kts 41°
2026-05-04 13:45 22.07408 111.37306 26722 ft 467 kts 41°
2026-05-04 13:45 22.09705 111.39789 26712 ft 468 kts 41°
2026-05-04 13:45 22.12007 111.42276 26710 ft 469 kts 41°
2026-05-04 13:45 22.14319 111.44761 26682 ft 469 kts 40°
2026-05-04 13:46 22.16644 111.47223 26713 ft 469 kts 41°
2026-05-04 13:46 22.18948 111.49727 26714 ft 470 kts 41°
2026-05-04 13:46 22.21245 111.52243 26714 ft 471 kts 41°
2026-05-04 13:46 22.23544 111.54760 26691 ft 471 kts 41°
2026-05-04 13:47 22.25815 111.57306 26711 ft 471 kts 42°
2026-05-04 13:47 22.28114 111.59824 26711 ft 470 kts 40°
2026-05-04 13:47 22.30441 111.62305 26710 ft 470 kts 41°
2026-05-04 13:47 22.32765 111.64795 26704 ft 471 kts 41°
2026-05-04 13:48 22.35075 111.67294 26671 ft 470 kts 40°
2026-05-04 13:48 22.37397 111.69756 26711 ft 466 kts 41°
2026-05-04 13:48 22.39658 111.72269 26724 ft 467 kts 42°
2026-05-04 13:48 22.41904 111.74824 26716 ft 469 kts 43°
2026-05-04 13:49 22.44151 111.77388 26712 ft 470 kts 43°
2026-05-04 13:49 22.46410 111.79948 26692 ft 471 kts 42°
2026-05-04 13:49 22.48678 111.82513 26712 ft 472 kts 42°
2026-05-04 13:49 22.50950 111.85074 26684 ft 472 kts 42°
2026-05-04 13:50 22.53231 111.87629 26716 ft 473 kts 42°
2026-05-04 13:50 22.55518 111.90189 26710 ft 474 kts 42°
2026-05-04 13:50 22.57808 111.92756 26701 ft 474 kts 42°
2026-05-04 13:50 22.60095 111.95331 26705 ft 474 kts 42°
2026-05-04 13:51 22.62375 111.97900 26666 ft 472 kts 42°
2026-05-04 13:51 22.64616 112.00418 26658 ft 471 kts 42°
2026-05-04 13:51 22.66894 112.02973 26675 ft 472 kts 42°
2026-05-04 13:51 22.69174 112.05552 26665 ft 475 kts 42°
2026-05-04 13:52 22.73729 112.10734 26649 ft 474 kts 42°
2026-05-04 13:52 22.76032 112.13351 26663 ft 473 kts 43°
2026-05-04 13:52 22.78296 112.15940 26669 ft 474 kts 42°
2026-05-04 13:53 22.80563 112.18443 26672 ft 470 kts 40°
2026-05-04 13:53 22.82884 112.20926 26696 ft 469 kts 42°
2026-05-04 13:53 22.85105 112.23556 26659 ft 474 kts 45°
2026-05-04 13:54 22.89576 112.28827 26661 ft 476 kts 43°
2026-05-04 13:54 22.91862 112.31431 26664 ft 477 kts 42°
2026-05-04 13:54 22.96430 112.36615 26535 ft 469 kts 42°
2026-05-04 13:55 22.98664 112.39163 26166 ft 462 kts 43°
2026-05-04 13:55 23.03055 112.44176 25275 ft 454 kts 43°
2026-05-04 13:55 23.05067 112.46807 24779 ft 456 kts 56°
2026-05-04 13:56 23.06337 112.49954 24351 ft 455 kts 74°
2026-05-04 13:56 23.06816 112.53325 23919 ft 451 kts 91°
2026-05-04 13:56 23.06354 112.60059 22869 ft 445 kts 97°
2026-05-04 13:57 23.06080 112.63388 22393 ft 441 kts 96°
2026-05-04 13:57 23.05821 112.66693 21920 ft 437 kts 96°
2026-05-04 13:58 23.05125 112.76443 20537 ft 427 kts 95°
2026-05-04 13:58 23.04689 112.82836 19604 ft 423 kts 95°
2026-05-04 13:58 23.04472 112.86012 19141 ft 421 kts 95°
2026-05-04 13:59 23.04256 112.89170 18683 ft 419 kts 95°
2026-05-04 13:59 23.04038 112.92319 18199 ft 417 kts 95°
2026-05-04 13:59 23.03606 112.98562 17231 ft 411 kts 95°
2026-05-04 14:00 23.03391 113.01647 16773 ft 408 kts 96°
2026-05-04 14:00 23.02964 113.07746 15891 ft 402 kts 96°
2026-05-04 14:00 23.02753 113.10759 15432 ft 399 kts 96°
2026-05-04 14:01 23.02542 113.13746 15007 ft 395 kts 96°
2026-05-04 14:01 23.02325 113.16708 14563 ft 392 kts 98°
2026-05-04 14:01 23.00745 113.22217 13730 ft 377 kts 121°
2026-05-04 14:02 22.99533 113.24718 13280 ft 373 kts 122°
2026-05-04 14:02 22.98332 113.27161 12843 ft 370 kts 122°
2026-05-04 14:02 22.97116 113.29646 12367 ft 367 kts 121°
2026-05-04 14:02 22.95931 113.32093 11918 ft 365 kts 121°
2026-05-04 14:03 22.94763 113.34523 11493 ft 362 kts 121°
2026-05-04 14:03 22.93608 113.36935 11077 ft 359 kts 120°
2026-05-04 14:03 22.92465 113.39327 10661 ft 356 kts 120°
2026-05-04 14:03 22.91340 113.41679 10487 ft 346 kts 120°
2026-05-04 14:04 22.89035 113.46048 10160 ft 321 kts 137°
2026-05-04 14:04 22.87277 113.47389 10072 ft 301 kts 161°
2026-05-04 14:04 22.85999 113.47863 10060 ft 288 kts 171°
2026-05-04 14:05 22.82023 113.47901 9178 ft 287 kts 188°
2026-05-04 14:05 22.79397 113.47686 8766 ft 285 kts 188°
2026-05-04 14:05 22.77428 113.47536 8456 ft 283 kts 187°
2026-05-04 14:06 22.75472 113.47392 8151 ft 281 kts 187°
2026-05-04 14:06 22.73527 113.47248 7828 ft 280 kts 187°
2026-05-04 14:06 22.71588 113.47104 7523 ft 278 kts 187°
2026-05-04 14:06 22.69662 113.46960 7218 ft 277 kts 187°
2026-05-04 14:07 22.68363 113.46864 7019 ft 276 kts 186°
2026-05-04 14:07 22.66454 113.46722 6726 ft 274 kts 186°
2026-05-04 14:07 22.64548 113.46618 6421 ft 275 kts 179°
2026-05-04 14:07 22.62747 113.47230 6272 ft 273 kts 149°
2026-05-04 14:08 22.61406 113.48688 6106 ft 279 kts 122°
2026-05-04 14:08 22.60764 113.50645 5971 ft 283 kts 98°
2026-05-04 14:08 22.60682 113.52770 5846 ft 284 kts 84°
2026-05-04 14:08 22.61382 113.54749 5708 ft 285 kts 53°
2026-05-04 14:09 22.64769 113.56778 5174 ft 286 kts
2026-05-04 14:09 22.66742 113.56851 4950 ft 281 kts
2026-05-04 14:10 22.70477 113.56923 4533 ft 259 kts
2026-05-04 14:10 22.72269 113.56974 4045 ft 261 kts
2026-05-04 14:10 22.74064 113.57027 3743 ft 254 kts
2026-05-04 14:10 22.75798 113.57077 3491 ft 245 kts
2026-05-04 14:11 22.77477 113.57126 3254 ft 238 kts
2026-05-04 14:11 22.80675 113.57220 3042 ft 221 kts
2026-05-04 14:11 22.82218 113.57322 2967 ft 223 kts 15°
2026-05-04 14:12 22.83499 113.58166 2824 ft 215 kts 55°
2026-05-04 14:12 22.84254 113.59516 2743 ft 204 kts 64°
2026-05-04 14:12 22.85484 113.62124 2467 ft 186 kts 65°
2026-05-04 14:13 22.86096 113.63420 2372 ft 196 kts 65°
2026-05-04 14:13 22.86542 113.64767 2266 ft 185 kts 90°
2026-05-04 14:13 22.86200 113.66020 2221 ft 167 kts 123°
2026-05-04 14:13 22.85390 113.66900 2219 ft 167 kts 150°
2026-05-04 14:14 22.84361 113.67460 2239 ft 166 kts 150°
2026-05-04 14:14 22.82319 113.68606 2309 ft 166 kts 151°
2026-05-04 14:14 22.81290 113.69178 2308 ft 166 kts 151°
2026-05-04 14:15 22.79241 113.70309 2310 ft 164 kts 151°
2026-05-04 14:15 22.77212 113.71425 2314 ft 163 kts 151°
2026-05-04 14:16 22.75203 113.72530 2052 ft 159 kts 151°
2026-05-04 14:16 22.74236 113.73061 1835 ft 153 kts 150°
2026-05-04 14:17 22.72356 113.74093 1465 ft 150 kts 151°
2026-05-04 14:17 22.71443 113.74594 1276 ft 145 kts 151°
2026-05-04 14:17 22.69669 113.75567 900 ft 144 kts 152°
2026-05-04 14:18 22.68764 113.76064 706 ft 147 kts 152°
2026-05-04 14:18 22.66935 113.77075 312 ft 150 kts 152°
2026-05-04 14:19 22.65099 113.78080 16 ft 134 kts 153°
2026-05-04 14:19 22.64401 113.78462 15 ft 83 kts 154°
2026-05-04 14:19 22.64221 113.78578 16 ft 11 kts 136°
2026-05-04 14:19 22.64181 113.78628 15 ft 9 kts 124°
2026-05-04 14:20 22.64144 113.78685 15 ft 9 kts 124°
2026-05-04 14:20 22.64109 113.78742 15 ft 9 kts 124°
2026-05-04 14:20 22.64102 113.78802 17 ft 9 kts 57°
2026-05-04 14:21 22.64207 113.78780 15 ft 8 kts 334°
2026-05-04 14:21 22.64258 113.78753 15 ft 9 kts 334°
2026-05-04 14:21 22.64343 113.78706 15 ft 19 kts 333°
2026-05-04 14:21 22.64465 113.78636 15 ft 20 kts 333°
2026-05-04 14:22 22.64586 113.78570 15 ft 20 kts 334°
2026-05-04 14:22 22.64712 113.78503 15 ft 20 kts 333°
2026-05-04 14:22 22.64838 113.78436 15 ft 20 kts 334°
2026-05-04 14:22 22.64958 113.78369 15 ft 19 kts 333°
2026-05-04 14:23 22.65188 113.78244 15 ft 18 kts 333°
2026-05-04 14:23 22.65299 113.78184 15 ft 17 kts 333°
2026-05-04 14:23 22.65412 113.78121 15 ft 21 kts 333°
2026-05-04 14:24 22.65541 113.78049 15 ft 21 kts 333°
2026-05-04 14:24 22.65669 113.77978 15 ft 20 kts 333°
2026-05-04 14:24 22.65794 113.77909 16 ft 20 kts 333°
2026-05-04 14:24 22.65918 113.77841 15 ft 20 kts 332°
2026-05-04 14:25 22.66046 113.77813 15 ft 19 kts
2026-05-04 14:25 22.66229 113.77977 15 ft 18 kts 62°
2026-05-04 14:25 22.66284 113.78094 15 ft 17 kts 63°
2026-05-04 14:26 22.66337 113.78207 15 ft 16 kts 63°
2026-05-04 14:26 22.66343 113.78317 15 ft 16 kts 139°
2026-05-04 14:26 22.66248 113.78373 15 ft 15 kts 152°
2026-05-04 14:26 22.66155 113.78423 15 ft 15 kts 153°
2026-05-04 14:27 22.66064 113.78473 15 ft 16 kts 153°
2026-05-04 14:27 22.65956 113.78533 15 ft 20 kts 153°
2026-05-04 14:27 22.65819 113.78609 15 ft 24 kts 153°
2026-05-04 14:27 22.65658 113.78699 15 ft 28 kts 152°
2026-05-04 14:28 22.65481 113.78798 15 ft 30 kts 154°
2026-05-04 14:28 22.65292 113.78895 15 ft 30 kts 154°
2026-05-04 14:28 22.65115 113.78993 15 ft 28 kts 153°
2026-05-04 14:28 22.64948 113.79085 16 ft 26 kts 153°
2026-05-04 14:29 22.64649 113.79250 15 ft 23 kts 153°
2026-05-04 14:29 22.64357 113.79412 15 ft 23 kts 153°
2026-05-04 14:30 22.64229 113.79481 15 ft 23 kts 153°